Regional Weather Roundup
Issued by NWS State College, PA

Home | Current Version | Previous Version | Graphics & Text | Print | Product List | Glossary On
Versions: 1 2 3 4 5 6 7 8 9 10 11 12 13 14 15 16 17 18 19 20 21 22 23 24 25 26 27 28 29 30 31 32 33 34 35 36 37 38 39 40 41 42 43 44 45 46 47 48 49 50
000
ASUS41 KCTP 030003
RWRCTP

REGIONAL WEATHER ROUNDUP
NATIONAL WEATHER SERVICE STATE COLLEGE PA
800 PM EDT THU JUL 02 2015

Note: "fair" indicates few or no clouds below 12,000 feet with no
significant weather and/or obstructions to visibility.

* = STATION THAT DOES NOT REPORT PRECIPITATION /E.G. RAIN...SNOW...ETC/
    THUNDER OR FOG.

PAZ002>004-007>009-013>016-020>023-029>032-030100-
WESTERN PENNSYLVANIA

CITY           SKY/WX    TMP DP  RH WIND       PRES   REMARKS
ERIE           CLEAR     67  48  50 NE6       29.96S
MEADVILLE      CLEAR     66  49  54 N6        29.97R
FRANKLIN*      CLEAR     66  54  63 N7        29.97R
NEW CASTLE     FAIR      71  58  63 VRB6      29.95R
BEAVER COUNTY  CLEAR     72  54  53 N3        29.93S
BUTLER*        PTCLDY    72  57  60 CALM      29.94S
PITTSBURGH INT PTCLDY    75  56  51 NW9       29.92R
PITTSBURGH     CLEAR     73  53  49 NW3       29.91S
INDIANA*       CLEAR     72  61  68 CALM      29.95S
LATROBE        PTCLDY    72  61  68 CALM      29.93S
WASHINGTON CO* NOT AVBL
$$

PAZ004>006-010>012-017>019-024>028-033>037-041-042-045-046-049>053-030100-
CENTRAL PENNSYLVANIA

CITY           SKY/WX    TMP DP  RH WIND       PRES   REMARKS
BRADFORD       CLEAR     65  53  65 N7        29.96R
DUBOIS         PTCLDY    72  54  53 NW3       29.93R
CLEARFIELD     PTCLDY    71  59  65 E3        29.92S
JOHNSTOWN      PTCLDY    67  57  70 W5        29.95R
ALTOONA        MOCLDY    70  63  78 CALM      29.92S
STATE COLLEGE  PTCLDY    70  61  73 CALM      29.91F
WILLIAMSPORT   MOCLDY    73  62  68 CALM      29.87S
SELINSGROVE    CLOUDY    73  65  75 CALM      29.89S
FT INDIANTOWN  CLOUDY    72  64  77 VRB1      29.88S
CAPITAL CITY   CLOUDY    72  63  73 SW3       29.88S
HARRISBURG     CLOUDY    73  64  73 CALM      29.87S
YORK           CLOUDY    71  66  84 CALM      29.89S
$$

PAZ038>040-043-044-047-048-054-055-060>062-067>071-030100-
EASTERN PENNSYLVANIA

CITY           SKY/WX    TMP DP  RH WIND       PRES   REMARKS
SCRANTON       CLOUDY    73  56  54 N3        29.90S
MOUNT POCONO   CLOUDY    67  55  65 NE3       29.93F
ALLENTOWN      CLOUDY    73  63  70 W3        29.87S
QUAKERTOWN*    CLOUDY    72  64  78 CALM      29.89S
READING        CLOUDY    72  63  73 SW5       29.87S
LANCASTER      CLOUDY    71  63  75 CALM      29.88F
COATESVILLE    CLOUDY    68  66  94 W5        29.90S
POTTSTOWN      CLOUDY    69  67  93 CALM      29.89F
BLUE BELL      CLOUDY    70  68  94 CALM      29.86F
DOYLESTOWN     CLOUDY    67  64  90 S3        29.87F
WILLOW GROVE   NOT AVBL
NORTH PHILA    CLOUDY    73  63  70 CALM      29.88F
PHILADELPHIA   LGT RAIN  73  66  78 SE3       29.87F
$$



USA.gov is the U.S. government's official web portal to all federal, state and local government web resources and services.